Location: Arborea
(39.7744°N, 8.5819°E)
Time: 19:55:57
(UTC+00:00)

Cosmos 1000 Rocket - Visible Passes

Search period start: 03 October 2023 00:00
Search period end: 13 October 2023 00:00
Orbit: 954 x 991 km, 82.9° (Epoch: 02 October)

Date Brightness Start Highest point End Pass type
(mag) Time Alt. Az. Time Alt. Az. Time Alt. Az.
03 Oct 6.4 20:22:43 20° N 20:22:43 20° N 20:24:28 10° N visible
03 Oct 7.3 22:07:17 10° NW 22:07:17 10° NW 22:07:21 10° NW visible
04 Oct 6.6 19:02:14 11° NE 19:02:14 11° NE 19:02:32 10° NE visible
04 Oct 6.5 20:46:49 21° N 20:46:49 21° N 20:48:51 10° N visible
05 Oct 6.3 19:26:16 18° NNE 19:26:16 18° NNE 19:27:51 10° NNE visible
05 Oct 6.7 21:10:51 19° NNW 21:10:51 19° NNW 21:12:54 10° NNW visible
06 Oct 6.0 19:50:16 25° NNE 19:50:16 25° NNE 19:52:41 10° NNE visible
06 Oct 7.1 21:34:49 14° NW 21:34:49 14° NW 21:36:19 10° NNW visible
07 Oct 6.4 18:29:36 12° NE 18:29:36 12° NE 18:30:17 10° NE visible
07 Oct 5.9 20:14:09 30° N 20:14:09 30° N 20:17:11 10° N visible
08 Oct 5.9 18:53:24 22° NE 18:53:24 22° NE 18:55:54 10° NNE visible
08 Oct 6.2 20:37:57 28° NW 20:37:57 28° NW 20:41:22 10° N visible
09 Oct 5.3 19:17:01 37° NNE 19:17:01 37° NNE 19:20:52 10° NNE visible
09 Oct 6.7 21:01:33 20° NW 21:01:33 20° NW 21:05:04 10° NNW visible
10 Oct 6.1 17:55:49 14° ENE 17:55:49 14° ENE 17:57:50 10° NE visible
10 Oct 4.8 19:40:20 60° N 19:40:20 60° N 19:45:29 10° N visible
10 Oct 7.2 21:24:50 11° WNW 21:25:27 11° WNW 21:27:22 10° NW visible
11 Oct 7.5 04:47:30 10° NE 04:49:21 11° ENE 04:51:11 10° E visible
11 Oct 5.3 18:18:27 26° E 18:18:45 27° E 18:23:52 10° NNE visible
11 Oct 5.4 20:02:52 42° W 20:03:44 45° WNW 20:09:46 10° N visible
12 Oct 4.7 18:37:00 10° SSE 18:42:59 47° E 18:49:01 10° NNE visible
12 Oct 6.4 20:23:23 10° SW 20:28:31 26° WNW 20:33:41 10° NNW visible
